Theta_e
323 323 325 326 321 321 324 324 325 324 322 325 339 341 341 341 342 343 345 346 345 325 321 327 336 334 329 322 320 322 320 320 319 320 325 325 322 320 320 319 320 320 320 320 320 320 321 320 320
323 323 325 325 321 324 326 326 326 325 324 325 332 334 337 339 343 346 347 346 338 328 320 324 334 333 327 322 321 321 321 320 320 321 322 322 321 321 321 321 320 321 321 321 321 321 321 321 320
323 323 324 319 319 323 326 325 323 326 325 327 327 331 333 337 338 342 345 345 337 333 321 321 330 334 327 323 322 322 322 321 321 321 321 321 321 322 323 322 321 321 322 321 321 321 321 320 320
323 322 325 323 323 323 324 324 324 327 330 330 329 328 334 335 336 336 340 343 345 342 325 320 326 333 331 325 323 323 323 322 321 321 321 321 322 322 323 322 322 321 321 321 321 321 320 320 320
321 321 321 322 323 322 325 325 326 326 329 329 330 329 329 339 340 339 341 343 344 343 336 321 322 330 332 329 325 324 324 323 322 321 321 321 322 322 322 322 321 321 321 321 320 320 320 320 320
320 319 320 322 322 323 324 325 325 326 329 329 329 329 328 327 328 341 340 343 346 345 338 322 320 328 332 330 327 325 325 324 323 322 321 321 321 321 321 321 321 320 320 320 320 320 319 319 319
317 316 318 320 321 322 323 324 324 326 326 329 330 328 328 329 327 335 342 342 344 347 343 326 319 324 330 333 331 326 325 325 324 322 321 321 321 321 321 321 321 320 320 320 319 319 319 318 318
318 316 320 319 320 320 322 323 323 324 328 329 330 327 328 327 328 329 339 342 345 347 346 332 319 321 326 330 334 332 327 325 324 323 322 321 321 321 321 321 321 320 320 319 319 319 319 318 318
317 315 316 317 320 320 321 320 322 323 325 329 330 328 329 328 328 328 335 345 346 349 348 335 322 319 323 327 331 335 332 327 326 325 322 321 321 321 321 321 321 320 320 320 319 319 319 318 318
314 312 315 316 317 318 319 320 321 323 324 326 327 328 328 328 327 328 325 325 345 349 348 343 324 320 320 325 328 332 336 331 328 327 324 322 321 321 321 321 320 320 320 320 320 320 319 319 320
314 314 314 316 318 319 319 319 320 322 323 326 327 328 328 328 327 327 326 324 325 342 349 347 339 323 319 321 325 329 333 333 329 327 326 322 321 321 321 321 321 321 321 321 322 321 321 320 322
311 313 315 316 317 318 317 319 319 320 322 322 325 327 327 328 328 327 326 326 325 328 346 348 347 344 327 320 321 325 328 332 332 328 326 324 321 320 321 321 321 322 323 325 323 322 324 325 326
311 311 314 315 317 318 318 318 318 319 319 320 321 321 323 326 327 328 328 327 326 325 328 337 348 347 341 327 321 322 324 326 328 328 327 325 322 320 321 321 321 323 325 327 323 323 327 331 332
313 313 314 315 315 314 314 315 316 318 318 318 318 319 320 323 326 327 328 327 327 326 326 328 341 346 340 331 324 321 323 324 325 325 325 326 323 320 320 321 322 323 325 326 324 322 325 331 333
313 312 310 313 315 314 315 314 314 317 317 318 318 318 319 320 325 327 326 326 326 326 325 328 332 344 343 339 326 324 322 334 339 337 326 323 323 320 320 320 321 322 324 325 325 324 324 328 333
312 310 311 311 314 315 315 315 314 317 317 317 318 318 319 320 324 327 326 325 324 326 326 326 326 334 343 342 339 339 338 334 339 338 335 329 325 322 320 321 321 322 324 327 327 325 329 327 331
309 310 311 312 313 313 313 314 314 317 316 316 317 318 318 318 319 322 325 325 324 324 323 324 326 326 344 343 345 347 344 344 344 341 340 339 337 335 333 331 331 333 328 331 331 331 333 330 328
311 311 311 312 314 314 313 312 312 315 315 315 316 317 318 318 318 319 319 323 324 321 322 323 326 333 344 345 346 345 345 346 347 345 342 341 342 339 338 342 340 340 338 333 335 333 332 327 326
312 312 312 313 314 313 312 311 311 314 315 315 316 317 317 318 319 319 320 322 322 323 323 322 323 329 342 344 341 338 334 335 343 344 345 345 344 345 344 342 342 343 337 331 335 334 332 330 328
313 313 312 312 313 314 312 312 312 313 314 316 315 316 317 317 318 319 319 319 322 323 322 321 321 321 331 336 338 335 335 334 333 330 342 342 342 345 345 344 343 342 338 334 334 336 336 333 332
313 312 312 313 314 313 313 313 313 313 315 316 316 317 317 317 317 317 320 319 319 320 321 321 320 318 318 329 334 338 337 332 329 330 332 333 337 340 340 340 341 338 334 335 335 333 334 331 329
312 313 314 314 313 312 314 313 312 313 313 314 315 316 317 317 317 317 318 320 320 320 320 319 319 318 318 315 320 334 337 335 331 327 328 329 329 334 337 336 336 337 337 336 336 335 333 332 329
314 314 313 313 312 310 312 311 312 313 313 313 313 314 316 317 318 317 317 319 320 320 319 319 319 318 316 315 314 314 317 328 334 336 332 330 328 328 330 337 336 337 340 339 339 338 337 335 336
314 313 312 311 309 311 310 311 313 312 312 312 314 317 317 317 318 317 317 319 320 320 320 320 319 319 318 318 318 317 316 314 317 322 328 333 335 336 328 328 331 334 336 337 337 338 339 339 338
313 312 312 314 312 314 311 312 313 312 314 316 315 316 316 317 316 316 319 320 322 321 320 319 318 318 318 317 316 315 315 315 314 315 318 324 327 332 336 332 329 330 330 331 329 332 334 341 340
316 315 316 320 316 318 317 318 315 315 315 317 316 316 316 317 318 318 320 320 318 318 317 317 317 318 318 317 317 315 315 319 321 318 318 317 321 328 329 330 330 328 327 329 331 331 333 338 340
314 315 315 317 319 321 319 317 315 314 316 316 314 314 315 316 317 317 318 318 317 317 318 318 318 318 319 318 318 318 319 318 320 324 324 324 321 321 323 322 322 327 330 331 334 335 334 332 331
315 315 316 316 322 323 319 318 316 314 315 315 316 315 315 315 315 316 316 317 318 318 318 318 317 317 317 318 319 319 319 322 321 321 323 326 328 328 329 328 324 330 326 327 330 334 335 334 331
313 313 315 313 314 319 316 316 313 314 314 314 313 315 316 316 316 316 317 316 316 317 318 317 317 318 319 319 319 318 318 320 320 319 321 322 322 322 323 324 328 329 331 331 328 323 323 327 333
313 315 314 313 317 317 317 314 312 313 312 312 314 315 315 316 316 316 316 316 315 316 316 317 317 318 318 319 319 319 320 320 320 318 317 318 320 320 319 319 319 320 322 323 324 327 331 336 332
Wind_Speed
12 12 14 3 3 4 5 2 3 9 11 12 13 15 6 7 4 4 11 16 11 24 27 28 30 29 28 29 28 26 25 25 26 27 27 25 22 19 18 16 15 15 14 14 13 13 12 12 12
12 14 6 2 4 2 5 5 7 5 12 14 11 20 19 4 16 12 15 17 14 16 24 28 31 31 30 30 30 28 27 26 27 27 26 24 22 20 18 16 14 13 13 12 11 11 10 10 9
12 14 4 3 3 6 4 3 5 19 12 25 9 8 4 4 8 8 13 14 16 14 22 27 31 31 31 32 31 29 28 28 28 26 25 23 21 19 17 15 13 12 11 10 9 8 7 7 6
9 4 2 3 7 9 2 8 9 10 12 21 19 6 13 7 3 7 7 10 12 13 19 24 30 31 30 30 31 31 28 27 27 26 25 23 21 18 17 14 12 11 9 8 7 5 5 4 4
5 2 1 2 6 7 8 11 16 9 7 9 23 9 10 10 9 7 6 11 13 16 18 23 29 32 31 29 30 30 29 26 26 25 24 22 21 18 16 13 11 10 8 6 4 3 2 1 1
2 1 2 4 7 8 8 18 15 9 12 14 4 11 8 12 14 6 1 6 14 15 21 26 30 33 32 31 30 30 28 27 25 23 23 22 19 18 16 13 10 8 6 5 3 1 0 1 2
5 3 5 4 6 9 15 14 14 18 20 19 11 4 6 5 11 8 7 8 11 17 21 26 30 34 33 31 29 29 29 27 25 23 22 21 19 17 15 13 10 8 6 4 2 2 2 3 4
6 4 4 5 6 9 20 14 21 27 12 24 10 6 4 9 6 11 4 5 14 18 22 25 30 35 36 34 30 28 27 26 25 23 22 20 19 17 15 13 10 8 6 4 4 4 4 5 6
9 2 5 6 7 8 29 6 24 27 18 12 28 3 16 13 10 9 18 8 11 23 22 24 29 34 37 36 34 30 28 27 25 23 22 21 19 17 15 13 10 8 7 6 6 7 7 7 7
7 4 8 7 6 8 26 15 19 11 18 8 14 17 10 11 13 12 15 16 5 23 26 24 30 32 37 37 37 35 32 31 29 26 23 22 20 18 15 13 11 10 8 7 7 9 9 10 9
5 6 4 12 22 27 24 22 22 12 7 12 18 23 18 12 14 10 9 9 9 8 24 24 26 32 33 38 38 36 34 32 31 28 25 23 22 20 18 16 13 11 10 9 8 10 10 11 9
5 13 19 22 29 25 15 30 22 16 12 10 18 26 28 16 16 13 10 4 4 4 11 23 23 26 33 36 40 40 36 33 31 31 28 26 24 22 20 18 14 13 11 8 5 6 8 9 9
4 7 21 29 33 34 34 24 23 27 15 14 12 14 23 30 16 16 23 15 9 4 6 11 20 25 29 35 38 39 37 34 32 31 31 29 27 26 23 21 18 14 12 9 5 5 6 7 8
6 11 15 13 20 14 9 13 10 26 17 13 16 16 20 23 27 23 25 27 19 18 10 8 13 21 24 28 34 36 34 29 28 30 31 30 29 28 27 25 22 18 14 11 9 8 7 9 12
13 6 9 5 7 5 10 10 12 25 25 31 25 21 19 20 30 25 24 25 22 22 20 13 15 21 23 23 28 30 33 27 23 23 29 30 30 29 27 26 24 21 16 14 14 12 12 11 16
4 3 4 6 5 11 3 18 14 31 27 31 35 26 21 19 23 33 28 28 23 25 25 27 21 19 27 26 27 27 25 26 29 25 23 26 26 27 27 27 27 23 20 19 18 16 17 16 19
3 4 7 9 6 7 6 16 12 27 28 29 33 33 27 21 26 30 34 35 30 30 30 29 28 21 29 30 30 26 25 23 28 30 26 24 24 24 24 26 25 21 23 24 21 21 23 22 21
6 4 5 5 5 4 5 9 9 24 22 27 31 23 15 17 23 28 29 39 32 29 29 31 30 28 31 35 34 31 28 27 23 30 31 27 27 28 26 23 22 19 21 24 25 24 23 22 22
9 10 12 5 7 4 6 10 10 14 9 13 16 15 13 13 15 20 21 29 26 31 32 33 32 28 34 37 35 28 30 34 32 26 25 27 30 30 25 24 24 23 24 24 26 26 25 24 23
13 14 8 7 5 5 10 13 10 6 9 15 17 15 15 16 14 17 21 24 26 30 33 32 32 27 31 30 29 28 26 20 29 37 30 23 29 27 20 27 28 27 26 26 28 30 30 27 25
11 6 4 7 6 4 4 6 6 7 9 16 19 20 22 26 30 25 30 31 31 33 35 35 34 27 24 31 30 31 30 26 27 27 25 17 26 27 26 30 30 31 27 25 28 26 30 28 27
5 8 10 6 3 7 3 11 5 7 10 7 19 26 29 32 35 35 34 38 37 34 31 30 27 26 24 24 26 32 30 30 31 29 37 33 26 23 24 30 34 34 27 22 26 20 24 28 30
11 12 12 10 6 4 4 7 3 3 13 16 16 29 35 32 32 36 38 43 40 35 29 26 27 25 24 23 20 21 22 28 32 32 33 31 38 42 42 28 29 25 30 29 28 25 25 23 28
15 8 5 4 2 9 6 7 12 5 9 7 8 24 28 27 38 36 38 45 38 31 29 25 20 18 19 20 19 20 21 22 24 27 34 38 39 38 41 51 52 38 36 32 32 32 29 30 30
4 5 5 7 5 12 5 7 14 6 6 8 11 22 19 25 22 28 39 42 39 34 25 20 19 20 19 22 26 27 24 23 25 25 25 25 29 38 43 41 43 50 58 50 50 37 34 39 34
2 4 2 6 4 10 5 6 6 4 8 9 19 25 15 5 12 23 38 39 33 25 22 19 18 17 14 12 14 20 18 17 17 20 22 26 28 28 27 28 31 39 40 46 47 44 42 36 36
4 4 11 8 7 5 4 7 7 10 11 7 15 12 4 15 23 23 23 22 22 22 22 19 17 18 19 15 15 16 16 19 19 16 17 19 23 23 22 22 24 23 24 31 33 41 47 45 43
2 1 3 2 3 5 4 4 6 7 6 10 10 12 13 11 8 7 16 21 23 25 22 19 17 20 23 21 20 15 16 15 14 13 12 13 15 17 21 22 23 26 22 24 24 25 27 30 45
3 2 5 3 3 3 3 5 6 5 5 8 10 15 2 3 5 7 7 5 4 17 26 24 26 31 32 27 22 19 17 16 17 16 16 15 15 14 15 18 22 24 24 23 24 28 31 34 30
3 5 4 4 3 3 3 8 17 17 10 8 18 14 19 13 13 13 9 13 14 12 21 31 30 33 32 30 26 25 22 21 22 20 22 24 22 21 21 21 19 21 23 24 27 27 28 28 31
Wind_Direction
323 333 336 314 63 65 262 276 198 325 352 19 76 87 109 23 147 183 130 185 173 166 165 165 164 164 158 152 147 145 143 143 142 148 151 150 145 140 135 129 122 117 114 110 105 102 98 95 97
325 332 346 322 104 114 266 205 1 303 307 25 92 93 73 66 78 103 133 155 150 161 169 168 167 166 161 154 150 149 147 146 146 147 147 145 142 139 134 128 123 118 111 105 101 96 91 92 96
316 323 322 103 156 190 222 87 329 328 350 27 13 25 46 100 82 115 118 127 152 162 171 171 170 168 165 159 155 154 153 152 151 149 147 146 144 140 137 132 127 120 113 107 103 99 96 93 94
324 329 276 115 238 264 281 306 303 321 347 12 26 51 64 55 62 86 142 149 155 161 171 177 174 171 171 165 161 159 159 158 156 154 152 150 148 145 142 138 133 128 123 118 110 106 103 100 101
308 267 327 272 260 266 295 291 309 298 286 342 79 68 63 77 81 63 142 167 174 175 175 182 179 175 174 173 169 167 166 165 163 160 158 156 154 152 148 145 142 138 133 125 110 102 92 73 61
281 195 118 234 269 288 303 304 312 295 288 292 22 107 61 68 50 170 54 170 185 181 181 182 181 180 179 178 176 175 175 173 170 168 165 163 161 158 156 154 154 151 147 150 142 139 341 308 289
169 97 211 228 275 297 281 331 297 294 264 264 235 128 132 92 46 74 143 242 199 188 185 182 185 185 184 184 183 183 183 181 178 176 174 172 169 167 166 166 167 165 170 185 195 245 287 295 294
224 124 233 213 244 272 278 309 299 313 258 277 293 173 179 123 134 88 177 160 205 187 195 185 187 190 189 187 188 189 192 190 188 186 183 181 180 178 178 179 180 182 193 215 240 261 285 303 300
227 155 233 230 237 264 282 286 296 301 297 225 235 210 148 162 172 112 81 142 183 186 191 192 192 194 195 193 190 191 196 199 198 196 194 192 191 191 190 190 195 204 217 235 259 276 291 299 304
180 187 229 221 232 254 276 277 288 297 284 271 236 239 160 165 174 177 89 69 172 187 187 192 196 199 200 199 198 194 196 200 203 203 203 202 203 201 203 205 211 221 235 253 269 281 290 297 308
216 223 231 259 257 262 268 281 287 247 274 254 250 252 247 182 183 175 149 98 64 174 198 198 200 202 206 208 205 203 201 202 205 207 208 211 212 210 211 216 222 233 248 260 266 274 286 293 294
237 266 244 256 260 260 263 275 277 238 231 263 273 263 246 187 171 192 212 234 132 105 184 209 213 207 209 213 213 210 208 207 209 210 212 214 216 218 219 224 228 237 242 241 240 263 284 299 301
191 255 261 255 257 261 264 263 265 269 257 246 242 261 277 258 228 211 223 231 253 222 175 190 219 221 220 216 213 215 215 214 216 216 217 218 219 219 222 227 229 233 233 228 231 250 278 304 318
314 301 285 297 270 252 249 271 263 273 282 280 282 275 271 275 238 217 214 227 241 241 250 237 213 217 223 220 218 216 218 221 226 229 226 223 223 225 225 229 231 232 233 239 245 252 260 283 291
315 325 319 285 285 275 289 285 256 280 292 292 284 278 262 254 245 223 225 226 243 236 235 227 226 220 218 214 217 217 216 216 219 226 230 229 229 227 230 235 238 240 241 247 251 258 269 278 288
328 4 321 278 304 282 151 267 273 273 269 274 277 277 255 247 242 237 240 248 241 237 236 240 237 233 213 213 210 215 223 221 226 218 219 223 222 227 229 239 243 245 246 248 252 261 272 278 286
335 243 271 301 203 256 166 275 288 290 271 252 256 262 270 252 238 236 239 245 239 240 241 232 233 218 211 213 216 213 222 224 225 223 213 214 210 214 221 231 240 243 245 248 254 260 267 272 275
239 227 263 249 299 186 266 263 277 294 263 243 246 253 262 292 270 251 243 236 234 238 234 225 225 204 204 209 217 222 222 215 210 218 217 228 227 219 220 229 240 239 246 246 247 251 258 265 269
247 260 262 248 246 307 273 276 282 295 301 271 240 236 259 280 267 240 230 221 228 227 224 220 221 207 206 208 217 223 234 229 218 221 210 212 234 231 223 230 238 244 249 253 254 255 260 263 268
241 243 255 258 252 285 282 284 272 274 283 286 276 273 272 269 246 235 220 212 210 217 217 219 222 216 213 215 218 218 221 208 221 228 233 222 229 231 231 238 242 246 253 258 256 258 256 260 259
248 218 236 248 283 306 310 288 307 303 287 294 293 295 290 283 278 259 218 212 212 214 219 222 222 218 213 220 226 229 232 234 233 229 230 241 248 234 236 246 252 257 253 255 258 255 256 254 253
272 259 249 256 252 264 143 284 260 282 294 287 292 289 290 290 289 276 236 223 212 214 209 210 217 222 230 230 231 237 237 240 242 240 234 227 239 266 246 249 252 257 259 246 253 252 246 247 249
273 270 247 246 228 170 210 280 166 354 291 283 283 285 289 284 289 277 242 225 209 199 193 201 207 213 222 232 235 239 244 245 241 240 248 245 240 245 252 246 258 258 266 257 260 257 259 254 256
274 300 297 329 147 251 207 212 267 255 257 270 282 282 288 293 281 276 232 210 185 179 191 198 205 217 229 240 249 256 255 250 245 243 245 244 240 242 245 246 252 258 263 262 271 268 267 260 258
33 352 317 279 289 269 207 256 270 241 268 250 279 297 301 312 288 220 198 181 174 177 185 201 215 232 241 245 251 253 252 250 247 246 246 244 244 239 237 240 243 245 244 262 261 269 269 264 261
163 172 196 286 259 302 354 260 266 257 247 280 289 293 261 137 148 159 165 167 171 180 198 201 197 199 208 233 253 255 253 244 247 240 241 242 247 244 242 243 249 247 245 247 255 260 268 266 265
292 212 237 260 251 248 223 284 303 282 290 332 356 23 295 201 177 170 184 199 207 197 194 200 206 210 215 244 261 261 259 251 253 259 254 248 246 243 243 240 248 249 247 244 250 252 255 259 263
206 291 317 15 261 250 260 275 248 326 335 337 337 348 22 68 118 164 194 209 215 212 211 219 233 234 232 236 233 250 252 237 248 254 252 258 259 258 253 248 242 255 248 247 244 250 255 256 258
312 104 60 118 147 258 289 261 223 232 272 286 260 292 228 3 49 149 162 177 290 246 225 235 235 223 225 233 232 236 239 241 243 251 255 255 255 262 269 268 257 257 261 260 254 256 262 263 260
130 153 128 123 230 226 265 266 263 274 259 277 289 281 261 230 220 218 231 233 296 313 256 238 228 223 230 233 235 236 233 230 236 239 249 249 254 261 267 267 267 267 268 266 272 263 261 267 269